Charleston, SC

3:26 AM EST on February 20, 2018 (GMT -0500)
Charleston Executive

Weather History for KJZI - March, 2014

Change the Weather History Date:

Thursday, March 13, 2014

  Actual Average (KCHS) Record (KCHS)
Temperature  
Mean Temperature 46 °F -  
Max Temperature 57 °F 71 °F 88 °F (1955)
Min Temperature 35 °F 49 °F 22 °F (1998)
Degree Days  
Heating Degree Days 19    
Moisture  
Dew Point 27 °F    
Average Humidity 45    
Maximum Humidity 81    
Minimum Humidity 23    
Precipitation  
Precipitation 0.00 in - - ()
Sea Level Pressure  
Sea Level Pressure 30.02 in    
Wind  
Wind Speed 15 mph (NW)    
Max Wind Speed 26 mph    
Max Gust Speed 36 mph    
Visibility 10 miles    
Events      
Averages and records for this station are not official NWS values.
T = Trace of Precipitation, MM = Missing Value Source: NWS Daily Summary

Daily Weather History Graph

Daily Weather History Graph

Search for Another Location

Airport or City:

Trip Planner

Search our weather history database for the weather conditions in past years. The results will help you decide how hot, cold, wet, or windy it might be!

Date:

Astronomy

Mar. 13, 2014 Rise Set
Actual Time 7:32 AM EDT 7:26 PM EDT
Civil Twilight 7:08 AM EDT 7:51 PM EDT
Nautical Twilight 6:39 AM EDT 8:19 PM EDT
Astronomical Twilight 6:11 AM EDT 8:48 PM EDT
Moon 4:57 PM EDT (3/13) 5:31 AM EDT (3/13)
Length of Visible Light 12h 42m
Length of Day
11h 53m
Waxing Gibbous, 91% of the Moon is Illuminated
Mar 13
Waxing Gibbous
Mar 16
Full
Mar 23
Last Quarter
Mar 30
New
Apr 7
First Quarter

Hourly Weather History & Observations

Time (EDT) Temp. Windchill Dew Point Humidity Pressure Visibility Wind Dir Wind Speed Gust Speed Precip Events Conditions
12:15 AM 57.2 °F - 39.2 °F 51% 29.71 in 10.0 mi WNW 21.9 mph 34.5 mph 0.00 in   Clear
12:35 AM 55.4 °F - 39.2 °F 54% 29.73 in 10.0 mi WNW 20.7 mph 35.7 mph 0.00 in   Clear
12:55 AM 53.6 °F - 37.4 °F 54% 29.74 in 10.0 mi WNW 26.5 mph 33.4 mph 0.00 in   Clear
1:15 AM 53.6 °F - 37.4 °F 54% 29.76 in 10.0 mi WNW 19.6 mph 27.6 mph 0.00 in   Clear
1:35 AM 51.8 °F - 35.6 °F 54% 29.77 in 10.0 mi WNW 23.0 mph 31.1 mph 0.00 in   Clear
1:55 AM 51.8 °F - 35.6 °F 54% 29.78 in 10.0 mi WNW 16.1 mph 31.1 mph 0.00 in   Clear
2:15 AM 51.8 °F - 33.8 °F 50% 29.79 in 10.0 mi WNW 13.8 mph 26.5 mph 0.00 in   Clear
2:35 AM 50.0 °F - 33.8 °F 54% 29.80 in 10.0 mi WNW 17.3 mph 25.3 mph 0.00 in   Clear
2:55 AM 48.2 °F - 33.8 °F 58% 29.81 in 10.0 mi WNW 18.4 mph 24.2 mph 0.00 in   Clear
3:15 AM 48.2 °F - 32.0 °F 54% 29.81 in 10.0 mi WNW 15.0 mph 23.0 mph 0.00 in   Clear
3:35 AM 48.2 °F - 32.0 °F 54% 29.82 in 10.0 mi WNW 12.7 mph 26.5 mph 0.00 in   Clear
3:55 AM 48.2 °F - 32.0 °F 54% 29.82 in 10.0 mi WNW 12.7 mph - 0.00 in   Clear
4:15 AM 48.2 °F - 32.0 °F 54% 29.82 in 10.0 mi WNW 16.1 mph 25.3 mph 0.00 in   Clear
4:35 AM 46.4 °F 41.1 °F 32.0 °F 57% 29.83 in 10.0 mi WNW 11.5 mph - 0.00 in   Clear
4:55 AM 46.4 °F 40.1 °F 32.0 °F 57% 29.84 in 10.0 mi WNW 15.0 mph 19.6 mph 0.00 in   Clear
5:15 AM 46.4 °F 39.8 °F 32.0 °F 57% 29.85 in 10.0 mi WNW 16.1 mph 23.0 mph 0.00 in   Clear
5:35 AM 46.4 °F 39.5 °F 30.2 °F 53% 29.86 in 10.0 mi WNW 17.3 mph 25.3 mph 0.00 in   Clear
5:55 AM 44.6 °F 37.4 °F 30.2 °F 57% 29.88 in 10.0 mi WNW 16.1 mph 26.5 mph 0.00 in   Clear
6:15 AM 44.6 °F 37.8 °F 28.4 °F 53% 29.90 in 10.0 mi WNW 15.0 mph 23.0 mph 0.00 in   Clear
6:35 AM 44.6 °F 38.1 °F 28.4 °F 53% 29.91 in 10.0 mi WNW 13.8 mph 21.9 mph 0.00 in   Clear
6:55 AM 44.6 °F 37.4 °F 28.4 °F 53% 29.93 in 10.0 mi WNW 16.1 mph - 0.00 in   Clear
7:15 AM 44.6 °F 37.8 °F 28.4 °F 53% 29.94 in 10.0 mi WNW 15.0 mph 19.6 mph 0.00 in   Clear
7:35 AM 42.8 °F 36.2 °F 28.4 °F 57% 29.96 in 10.0 mi WNW 12.7 mph - 0.00 in   Clear
7:55 AM 42.8 °F 35.4 °F 28.4 °F 57% 29.98 in 10.0 mi WNW 15.0 mph 19.6 mph 0.00 in   Clear
8:15 AM 44.6 °F 38.8 °F 28.4 °F 53% 29.99 in 10.0 mi WNW 11.5 mph 19.6 mph 0.00 in   Clear
8:35 AM 44.6 °F 38.4 °F 28.4 °F 53% 30.01 in 10.0 mi NW 12.7 mph 16.1 mph 0.00 in   Clear
8:55 AM 44.6 °F 38.8 °F 28.4 °F 53% 30.02 in 10.0 mi NW 11.5 mph 18.4 mph 0.00 in   Clear
9:15 AM 46.4 °F 40.7 °F 28.4 °F 50% 30.02 in 10.0 mi WNW 12.7 mph 17.3 mph 0.00 in   Clear
9:35 AM 46.4 °F 40.7 °F 28.4 °F 50% 30.02 in 10.0 mi NW 12.7 mph 19.6 mph 0.00 in   Clear
9:55 AM 48.2 °F - 28.4 °F 46% 30.04 in 10.0 mi NW 12.7 mph 19.6 mph 0.00 in   Clear
10:15 AM 48.2 °F - 26.6 °F 43% 30.05 in 10.0 mi WNW 16.1 mph 21.9 mph 0.00 in   Clear
10:35 AM 48.2 °F - 28.4 °F 46% 30.04 in 10.0 mi NW 13.8 mph - 0.00 in   Clear
10:55 AM 48.2 °F - 28.4 °F 46% 30.05 in 10.0 mi WNW 15.0 mph 19.6 mph 0.00 in   Clear
11:15 AM 50.0 °F - 26.6 °F 40% 30.06 in 10.0 mi WNW 16.1 mph 21.9 mph 0.00 in   Clear
11:35 AM 51.8 °F - 26.6 °F 38% 30.06 in 10.0 mi WNW 13.8 mph 20.7 mph 0.00 in   Clear
11:55 AM 51.8 °F - 26.6 °F 38% 30.06 in 10.0 mi WNW 11.5 mph 19.6 mph 0.00 in   Clear
12:15 PM 51.8 °F - 26.6 °F 38% 30.06 in 10.0 mi WNW 15.0 mph 21.9 mph 0.00 in   Clear
12:35 PM 53.6 °F - 23.0 °F 30% 30.06 in 10.0 mi WNW 16.1 mph 24.2 mph 0.00 in   Clear
12:55 PM 55.4 °F - 24.8 °F 31% 30.06 in 10.0 mi NW 18.4 mph 24.2 mph 0.00 in   Clear
1:15 PM 53.6 °F - 21.2 °F 28% 30.06 in 10.0 mi NW 17.3 mph 25.3 mph 0.00 in   Clear
1:35 PM 53.6 °F - 21.2 °F 28% 30.06 in 10.0 mi NW 15.0 mph 24.2 mph 0.00 in   Clear
1:55 PM 55.4 °F - 23.0 °F 29% 30.06 in 10.0 mi NNW 16.1 mph 21.9 mph 0.00 in   Clear
2:15 PM 55.4 °F - 23.0 °F 29% 30.06 in 10.0 mi NW 13.8 mph 23.0 mph 0.00 in   Clear
2:35 PM 55.4 °F - 23.0 °F 29% 30.06 in 10.0 mi NW 13.8 mph 25.3 mph 0.00 in   Clear
2:55 PM 55.4 °F - 21.2 °F 26% 30.06 in 10.0 mi NW 11.5 mph 20.7 mph 0.00 in   Clear
3:15 PM 57.2 °F - 23.0 °F 27% 30.06 in 10.0 mi WNW 12.7 mph 23.0 mph 0.00 in   Clear
3:35 PM 55.4 °F - 23.0 °F 29% 30.07 in 10.0 mi NNW 11.5 mph 21.9 mph 0.00 in   Clear
3:55 PM 57.2 °F - 23.0 °F 27% 30.07 in 10.0 mi WNW 16.1 mph 21.9 mph 0.00 in   Clear
4:15 PM 57.2 °F - 23.0 °F 27% 30.07 in 10.0 mi NW 8.1 mph 26.5 mph 0.00 in   Clear
4:35 PM 57.2 °F - 23.0 °F 27% 30.08 in 10.0 mi NW 11.5 mph 18.4 mph 0.00 in   Clear
4:55 PM 57.2 °F - 21.2 °F 25% 30.08 in 10.0 mi North 10.4 mph 18.4 mph 0.00 in   Clear
5:15 PM 57.2 °F - 19.4 °F 23% 30.08 in 10.0 mi NNW 10.4 mph 24.2 mph 0.00 in   Clear
5:35 PM 57.2 °F - 19.4 °F 23% 30.09 in 10.0 mi NW 12.7 mph 20.7 mph 0.00 in   Clear
5:55 PM 57.2 °F - 19.4 °F 23% 30.10 in 10.0 mi NNW 11.5 mph 19.6 mph 0.00 in   Clear
6:15 PM 57.2 °F - 19.4 °F 23% 30.11 in 10.0 mi NNW 11.5 mph 19.6 mph 0.00 in   Clear
6:35 PM 55.4 °F - 19.4 °F 25% 30.12 in 10.0 mi NW 11.5 mph 19.6 mph 0.00 in   Clear
6:55 PM 55.4 °F - 19.4 °F 25% 30.13 in 10.0 mi WNW 11.5 mph - 0.00 in   Clear
7:15 PM 53.6 °F - 19.4 °F 26% 30.14 in 10.0 mi NW 6.9 mph - 0.00 in   Clear
7:35 PM 51.8 °F - 19.4 °F 28% 30.16 in 10.0 mi NW 5.8 mph - 0.00 in   Clear
7:55 PM 51.8 °F - 19.4 °F 28% 30.17 in 10.0 mi Calm Calm - 0.00 in   Clear
8:15 PM 50.0 °F - 19.4 °F 30% 30.18 in 10.0 mi Calm Calm - 0.00 in   Clear
8:35 PM 48.2 °F - 21.2 °F 34% 30.19 in 10.0 mi Calm Calm - 0.00 in   Clear
8:55 PM 44.6 °F - 24.8 °F 46% 30.20 in 10.0 mi Calm Calm - 0.00 in   Clear
9:15 PM 44.6 °F - 26.6 °F 49% 30.21 in 10.0 mi Calm Calm - 0.00 in   Clear
9:35 PM 42.8 °F - 26.6 °F 53% 30.23 in 10.0 mi Calm Calm - 0.00 in   Clear
9:55 PM 41.0 °F - 26.6 °F 57% 30.23 in 10.0 mi Calm Calm - 0.00 in   Clear
10:15 PM 41.0 °F - 28.4 °F 61% 30.24 in 10.0 mi Calm Calm - 0.00 in   Clear
10:35 PM 39.2 °F - 30.2 °F 70% 30.25 in 10.0 mi Calm Calm - 0.00 in   Clear
10:55 PM 39.2 °F - 28.4 °F 65% 30.25 in 10.0 mi Calm Calm - 0.00 in   Clear
11:15 PM 37.4 °F - 30.2 °F 75% 30.25 in 10.0 mi Calm Calm - 0.00 in   Clear
11:35 PM 35.6 °F - 28.4 °F 75% 30.26 in 10.0 mi Calm Calm - 0.00 in   Clear
11:55 PM 35.6 °F - 30.2 °F 81% 30.26 in 10.0 mi Calm Calm - 0.00 in   Clear